Tracking 29781 objects as of 14-Oct-2024
HD Live streaming from Space Station
objects crossing your sky now

RADUGA 25

Track RADUGA 25 now!
RADUGA 25 is classified as:


NORAD ID: 20499
Int'l Code: 1990-016A
Perigee: 35,737.0 km
Apogee: 35,792.5 km
Inclination: 13.0 °
Period: 1,434.6 minutes
Semi major axis: 42135 km
RCS: 7.9432 m2 (large)
Launch date: February 15, 1990
Source: Commonwealth of Independent States (former USSR) (CIS)
Launch site: TYURATAM MISSILE AND SPACE COMPLEX (TTMTR)
Your satellite tracking list
Your tracking list is empty




NASA's NSSDC Master Catalog

Two Line Element Set (TLE):
1 20499U 90016A   24288.19754080 -.00000226  00000-0  00000-0 0  9999
2 20499  12.9655 338.9708 0006587 195.9814 192.1597  1.00375238126782
Source of the keplerian elements: AFSPC